EHI
0 0 0 0 0 0 0 0 0 0 0 0 0 0 0 0 0 0 0 0 0 0 0 0 0 0 0 0 0 0 1 2 2 1 0 0 1 2 1 0 0 0 0
0 0 0 0 0 0 0 0 0 0 0 0 0 0 0 0 0 0 0 0 0 0 0 0 0 0 0 0 0 0 1 2 2 2 1 0 1 1 1 0 0 0 0
0 0 0 0 0 0 0 0 0 0 0 0 0 0 0 0 0 0 0 0 0 0 0 0 0 0 0 0 0 0 0 1 1 2 1 0 0 1 1 0 0 0 0
0 0 0 0 0 0 0 0 0 0 0 0 0 0 0 0 1 0 0 0 0 0 0 0 0 0 0 0 0 0 0 0 0 1 1 0 0 0 1 0 0 0 0
0 0 0 0 0 0 0 0 0 0 0 0 0 0 0 0 0 0 0 0 0 0 0 0 0 0 0 0 0 0 0 0 0 0 0 0 0 0 0 0 0 0 0
0 0 0 0 0 0 0 0 0 0 0 0 0 0 0 0 0 0 0 0 0 0 0 0 0 0 0 0 0 0 0 0 0 0 0 0 0 0 0 0 0 0 0
0 0 0 0 0 0 0 0 0 0 0 0 0 0 0 0 0 0 0 0 0 0 0 0 0 0 0 0 0 0 0 0 0 0 0 0 0 0 0 0 0 0 0
0 0 0 0 0 0 0 0 0 0 0 0 0 0 0 0 0 0 0 0 0 0 0 0 0 0 0 0 0 0 0 0 0 0 0 0 0 0 0 0 0 0 0
0 0 0 0 0 0 0 0 0 0 0 0 0 0 0 0 0 0 0 0 0 0 0 0 0 0 0 0 0 0 0 0 0 0 0 0 0 0 0 0 0 0 0
0 0 0 0 0 0 0 0 0 0 0 0 0 0 0 0 0 0 0 0 0 0 0 0 0 0 0 0 0 0 0 0 0 0 0 0 0 0 0 0 0 0 0
0 0 0 0 0 0 0 0 0 0 0 0 0 0 0 0 0 0 0 0 0 0 0 0 0 0 0 0 0 0 0 0 0 0 0 0 0 0 0 0 0 0 0
0 0 0 0 0 0 0 0 0 0 0 0 0 0 0 0 0 0 0 0 0 0 0 0 0 0 0 0 0 0 0 0 0 0 0 0 0 0 0 0 0 0 0
0 0 0 0 0 0 0 0 0 0 0 0 0 0 0 0 0 0 0 0 0 0 0 0 0 0 0 0 0 0 0 0 0 0 0 0 0 0 0 0 0 0 0
0 0 0 0 0 0 0 0 0 0 0 0 0 0 0 0 0 0 0 0 0 0 0 0 0 0 0 0 0 0 0 0 0 0 0 0 0 0 0 0 0 0 0
0 0 0 0 0 0 0 0 0 0 0 0 0 0 0 0 0 0 0 0 0 0 0 0 0 0 0 0 0 0 0 0 0 0 0 0 0 0 0 0 0 0 0
0 0 0 0 0 0 0 0 0 0 0 0 0 0 0 0 0 0 0 0 0 0 0 0 0 0 0 0 0 0 0 0 0 0 0 0 0 0 0 0 0 0 0
1 0 0 0 0 0 0 0 0 0 0 0 0 0 0 0 0 0 0 0 0 0 0 0 0 0 0 0 0 0 0 0 0 0 0 0 0 0 0 0 0 0 0
1 0 0 0 0 0 0 0 0 0 0 0 0 0 0 0 0 0 0 0 0 0 0 0 0 0 0 0 0 0 0 0 0 0 0 0 0 0 0 0 0 0 0
1 1 0 0 0 0 0 0 0 0 0 0 0 0 0 1 0 0 0 0 0 0 0 0 0 0 0 0 0 0 0 0 0 0 0 0 0 0 0 0 0 0 0
2 2 1 0 0 0 0 0 0 0 0 0 0 0 0 0 0 0 0 0 0 0 0 0 0 0 0 0 0 0 0 0 0 0 0 0 0 0 0 0 0 0 0
3 2 1 1 0 0 0 0 0 0 0 0 0 0 0 0 0 0 0 0 0 0 0 0 0 0 0 0 0 0 0 0 0 0 0 0 0 0 0 0 0 0 0
1 2 2 2 1 0 0 0 0 0 0 0 0 0 0 0 0 0 0 0 0 0 0 0 0 0 0 0 0 0 0 0 0 0 0 0 0 0 0 0 0 0 0
0 1 2 3 2 1 0 0 0 0 0 0 0 0 0 0 0 0 0 0 0 0 0 0 0 0 0 0 0 0 0 0 0 0 0 0 0 0 0 0 0 0 0
0 0 2 3 2 1 0 0 0 0 0 0 0 0 0 0 0 0 0 0 0 0 0 0 0 0 0 0 0 0 0 0 0 0 0 0 0 0 0 0 0 0 0
0 0 1 2 1 0 0 0 0 0 0 0 0 0 0 0 0 0 0 0 0 0 0 0 0 0 0 0 0 0 0 0 0 0 0 0 0 0 0 0 0 0 0
0 0 1 1 0 0 0 0 0 0 0 0 0 0 0 0 0 0 0 0 0 0 0 0 0 0 0 0 0 0 0 0 0 0 0 0 0 0 0 0 0 0 0
Wind_Speed
2 1 1 1 1 1 2 2 2 2 3 3 3 4 3 3 3 3 3 7 8 9 9 8 8 8 8 8 8 8 8 9 8 8 8 8 7 7 7 7 6 6 5
2 2 2 2 1 1 1 1 2 2 2 3 3 3 3 2 3 3 3 4 7 8 8 7 7 7 8 8 8 8 9 8 8 8 7 7 7 7 6 6 6 6 5
3 3 2 2 1 1 2 2 3 3 3 3 3 2 2 2 2 3 3 2 3 5 7 7 7 7 7 7 7 8 8 8 8 8 7 7 7 6 6 6 5 6 6
3 3 2 1 1 2 2 2 2 3 3 2 2 1 2 2 2 2 2 2 2 2 4 6 6 6 6 6 7 7 7 7 7 7 7 7 6 6 6 5 5 5 5
3 3 2 1 2 2 2 2 2 2 2 2 1 1 1 1 1 2 2 2 1 2 2 3 5 5 5 5 5 6 6 6 6 6 6 6 6 5 5 5 5 5 5
3 3 2 2 2 2 2 2 2 2 1 1 2 2 2 1 1 1 1 1 1 1 1 2 2 3 4 4 5 5 5 5 5 5 5 6 6 5 5 5 4 4 5
3 3 3 2 2 2 2 2 2 2 2 2 3 3 3 3 2 1 1 1 1 1 1 1 1 1 2 4 4 4 4 4 4 5 5 5 5 5 5 5 5 4 4
3 3 3 2 2 2 2 2 2 1 1 1 2 2 2 3 3 2 1 1 0 1 1 1 1 1 1 1 3 4 4 4 3 4 4 3 4 4 4 5 5 5 5
3 3 3 3 2 2 2 1 2 2 1 1 1 3 2 1 2 3 2 1 1 0 0 0 1 1 1 1 1 3 4 4 4 3 3 3 3 3 3 4 4 4 4
2 3 3 3 3 2 2 1 2 2 2 1 1 0 1 3 2 1 3 2 1 0 0 1 1 1 1 1 1 2 3 3 4 3 2 2 2 2 2 3 3 4 4
1 2 3 3 2 2 2 2 2 2 2 2 1 0 1 1 1 2 1 2 2 2 0 1 1 1 1 1 0 1 2 3 3 3 4 3 3 3 3 3 3 3 3
1 1 2 2 2 2 2 2 2 2 2 2 1 1 2 1 1 2 1 1 1 2 1 0 1 1 1 1 1 2 2 2 2 3 4 4 4 3 3 3 3 3 3
1 2 2 2 2 2 2 2 2 2 2 2 2 1 1 2 2 2 2 1 1 2 1 1 1 1 1 1 1 2 2 1 1 2 2 3 3 3 3 3 2 2 3
2 2 2 2 2 3 3 2 2 2 2 2 2 2 1 1 2 2 3 3 1 1 1 2 1 1 1 1 2 2 1 1 1 0 1 2 3 3 3 3 2 3 3
2 2 2 2 2 2 3 3 2 3 2 2 2 2 2 2 2 2 2 3 4 2 2 2 1 2 1 1 2 1 1 2 1 1 0 1 2 2 2 3 3 3 2
2 2 2 2 2 2 2 2 2 2 3 2 2 2 2 2 1 2 2 2 2 4 3 2 2 2 1 1 2 1 2 2 2 1 0 1 1 1 1 2 2 2 2
3 3 3 3 2 2 2 2 2 3 3 3 3 3 3 2 2 2 2 2 2 3 3 2 1 1 1 1 1 1 1 1 1 2 2 2 1 1 1 1 2 2 2
3 3 3 3 3 2 2 3 3 3 4 4 4 3 3 2 2 2 2 2 2 3 3 2 1 1 1 2 1 1 1 1 1 3 3 2 2 2 1 1 1 1 1
2 2 3 3 4 3 3 4 4 3 4 4 4 5 4 3 3 2 3 3 2 2 2 2 2 1 1 1 0 1 1 1 2 2 2 2 3 2 2 2 2 1 1
3 3 3 3 4 4 4 3 3 3 3 3 4 5 5 5 5 4 4 4 3 2 2 2 2 1 1 0 1 1 1 1 1 1 1 1 2 2 2 2 3 2 2
3 4 3 2 2 2 3 3 3 3 3 3 3 3 4 5 7 5 4 4 4 3 3 2 2 1 1 1 2 1 1 1 2 1 1 1 1 1 2 3 3 3 3
3 3 3 3 3 2 3 4 3 3 3 3 3 3 3 3 5 7 6 6 7 6 5 4 3 3 3 3 2 2 1 0 2 2 1 2 1 2 2 2 4 4 4
2 3 3 3 4 4 4 4 4 3 3 3 4 3 2 2 2 2 4 5 6 7 8 6 5 5 4 5 4 3 3 3 3 2 1 2 1 2 3 3 5 5 4
3 3 3 3 3 4 5 4 4 3 3 3 3 3 3 2 2 2 2 3 3 4 5 4 5 5 5 5 6 5 4 2 1 1 2 2 2 2 3 2 5 5 4
3 3 3 3 3 4 5 5 3 2 2 2 3 3 3 3 4 4 3 2 2 2 2 3 3 3 4 5 4 3 2 2 1 2 1 2 2 1 2 2 3 4 4
3 3 3 3 3 3 4 4 3 2 2 2 2 2 3 3 3 4 4 3 3 2 1 0 0 0 1 2 4 5 5 4 2 2 2 2 1 0 1 2 2 2 2
Wind_Direction
109 96 77 59 42 44 51 48 58 64 68 71 78 85 78 67 62 57 52 68 74 75 79 81 82 81 79 77 75 75 75 73 74 74 76 74 71 68 72 73 73 74 73
123 112 86 72 53 42 52 65 79 75 67 78 76 79 88 80 74 69 55 56 62 67 73 76 78 81 82 81 78 75 75 73 72 71 71 71 68 65 69 73 70 69 69
127 119 105 87 74 65 65 63 60 61 65 70 70 75 82 80 80 75 65 51 46 59 67 72 73 79 85 87 83 79 78 74 71 68 67 67 68 68 69 68 66 67 65
122 114 107 102 91 78 71 74 66 65 57 62 60 57 73 83 86 81 72 61 46 41 50 63 69 73 81 87 88 84 82 78 74 69 64 62 63 63 61 60 63 65 63
116 114 112 111 98 82 72 81 68 82 75 59 64 56 53 78 102 99 80 80 77 61 45 48 53 63 74 81 87 88 83 79 77 73 67 62 59 59 57 54 59 62 66
116 114 108 100 95 85 64 64 70 58 82 81 70 45 17 25 47 85 111 90 79 81 69 48 32 35 57 72 73 76 82 80 77 72 66 63 58 54 51 51 55 56 67
113 113 110 104 101 104 106 94 91 67 49 62 68 28 4 13 30 37 64 90 77 80 84 73 55 31 24 44 57 61 68 78 76 71 64 63 60 53 47 48 50 50 58
124 125 122 122 118 107 88 84 92 89 39 57 106 86 16 355 357 9 25 95 108 84 81 94 78 67 49 31 43 54 50 59 69 69 62 60 60 55 47 40 41 44 49
131 130 135 130 126 124 132 132 118 119 122 357 96 131 134 220 310 337 353 16 21 86 155 127 116 121 92 62 26 39 58 57 58 59 55 57 57 52 49 39 42 49 51
138 138 144 141 141 141 146 156 122 124 128 137 339 51 149 157 149 313 332 341 343 341 229 160 138 140 119 115 72 65 70 61 57 48 39 37 35 42 40 40 49 48 43
151 148 148 149 152 154 162 156 133 126 130 150 168 146 75 68 115 142 271 317 339 324 300 208 181 155 141 141 149 94 82 68 56 39 29 31 38 47 43 43 47 39 29
191 190 162 163 168 167 177 177 163 157 155 144 152 149 146 149 175 152 188 252 282 302 326 308 199 184 170 167 181 142 113 83 60 39 28 27 27 29 31 31 36 28 20
210 227 192 189 185 185 184 174 171 182 180 170 183 198 190 195 175 160 157 197 250 296 333 325 264 211 185 174 197 161 140 108 73 42 21 22 23 16 12 10 11 10 9
210 207 194 198 201 192 189 179 183 203 192 196 204 199 203 218 185 171 166 156 145 324 326 279 296 238 222 192 204 176 170 161 137 83 22 25 19 12 2 357 352 348 353
207 187 184 193 207 198 193 183 197 213 204 210 213 209 209 221 197 192 173 164 158 181 250 260 270 264 239 197 200 172 198 210 195 199 47 23 16 7 360 358 351 343 343
198 185 190 193 197 198 195 187 206 214 199 217 217 215 225 227 210 195 181 174 166 165 206 241 240 250 229 201 195 188 218 224 220 219 229 350 360 347 335 347 353 356 356
193 195 200 200 201 208 209 197 211 208 207 219 225 217 230 223 213 212 186 171 172 156 183 247 246 248 198 199 204 224 233 232 241 240 242 261 292 302 312 345 347 351 353
202 200 195 196 203 207 210 204 217 218 214 218 222 220 234 221 217 206 188 187 182 175 167 190 233 235 228 213 202 215 240 236 246 254 244 246 269 272 263 275 308 325 345
206 207 198 203 208 208 210 213 217 222 221 223 218 214 220 201 213 206 193 191 184 172 156 163 205 227 261 202 142 257 264 296 264 260 243 253 274 273 252 251 256 277 312
195 202 208 215 215 211 208 209 216 226 234 239 231 219 213 203 206 202 198 194 180 167 159 164 187 215 238 211 144 182 280 284 274 274 275 262 271 279 260 254 249 251 266
203 199 198 214 215 210 207 195 202 216 224 241 249 237 225 217 213 203 199 192 181 177 171 179 190 189 201 188 206 203 219 283 284 252 277 282 286 290 281 264 258 253 259
214 199 198 199 206 224 225 200 190 210 214 219 233 247 250 231 230 216 207 195 185 183 187 186 191 196 210 205 192 188 177 155 274 258 182 272 211 250 263 255 262 257 260
217 211 211 202 213 226 222 212 202 201 211 218 222 227 249 248 236 223 220 210 210 205 192 184 191 206 202 199 181 189 201 203 229 231 159 258 248 253 260 262 262 262 258
210 215 221 213 218 238 233 224 214 198 211 223 221 214 220 244 234 206 211 211 222 217 207 196 200 211 209 199 191 192 196 200 267 247 157 220 248 256 269 262 262 261 263
214 218 219 219 223 247 242 231 207 198 212 232 236 228 214 218 236 200 178 191 224 256 235 205 197 205 205 197 179 151 151 156 238 245 189 186 237 273 276 265 269 263 262
214 212 224 227 225 237 240 228 204 185 203 226 238 239 230 218 213 182 175 180 205 237 236 223 228 246 203 185 173 175 178 181 193 226 214 178 210 177 289 276 274 281 271